Location: Pl�tzky
(52.0521°N, 11.8020°E)
Time: 07:26:34
(UTC+00:00)

Cosmos 1634 Rocket - Pass Details

Date: 22 November 2019
Orbit: 959 x 993 km, 82.9° (Epoch: 14 December)

Event Time Altitude Azimuth Distance (km) Brightness Sun altitude
Rises 16:39:32 0° 352° (N) 3,667 6.9 -12.9°
Reaches altitude 10° 16:42:12 10° 359° (N) 2,713 6.2 -13.3°
Maximum altitude 16:48:06 44° 71° (ENE) 1,303 4.2 -14.2°
Drops below altitude 10° 16:53:57 10° 143° (SE) 2,688 6.1 -15.0°
Sets 16:56:34 0° 150° (SSE) 3,631 6.8 -15.4°
